Weather History for KSJT - March, 2013

Change the Weather History Date:

Monday, March 4, 2013

  Actual Average Record
Temperature  
Mean Temperature 67 °F 54 °F  
Max Temperature 85 °F 68 °F 89 °F (2009)
Min Temperature 49 °F 41 °F 12 °F (1922)
Degree Days  
Heating Degree Days 0 11  
Month to date heating degree days 39 45  
Since 1 July heating degree days 1641 2006  
Cooling Degree Days 2 1  
Month to date cooling degree days 2 1  
Year to date cooling degree days 14 6  
Growing Degree Days 16 (Base 50)    
Moisture  
Dew Point 19 °F    
Average Humidity 21    
Maximum Humidity 35    
Minimum Humidity 6    
Precipitation  
Precipitation 0.00 in 0.05 in 0.59 in (2004)
Month to date precipitation 0.00 0.20  
Year to date precipitation 1.82 2.48  
Snow  
Snow 0.00 in 0.00 in 1.00 in (1989)
Month to date snowfall 0.0 0.0  
Since 1 July snowfall 2.8 2.1  
Snow Depth 0.00 in    
Sea Level Pressure  
Sea Level Pressure 29.73 in    
Wind  
Wind Speed 15 mph (SW)    
Max Wind Speed 28 mph    
Max Gust Speed 39 mph    
Visibility 10 miles    
Events      
T = Trace of Precipitation, MM = Missing Value Source: NWS Daily Summary

Daily Weather History Graph

Daily Weather History Graph

Search for Another Location

Airport or City:

Trip Planner

Search our weather history database for the weather conditions in past years. The results will help you decide how hot, cold, wet, or windy it might be!

Date:

Astronomy

Mar. 04, 2013 Rise Set
Actual Time 7:04 AM CST 6:42 PM CST
Civil Twilight 6:40 AM CST 7:06 PM CST
Nautical Twilight 6:12 AM CST 7:35 PM CST
Astronomical Twilight 5:44 AM CST 8:03 PM CST
Moon 1:01 AM CST (3/4) 11:41 AM CST (3/4)
Length of Visible Light 12h 26m
Length of Day
11h 37m
Waning Gibbous, 52% of the Moon is Illuminated
Mar 4
Waning Gibbous
Mar 4
Last Quarter
Mar 11
New
Mar 19
First Quarter
Mar 27
Full

Hourly Weather History & Observations

Time (CST) Temp. Dew Point Humidity Pressure Visibility Wind Dir Wind Speed Gust Speed Precip Events Conditions
12:51 AM 64.9 °F 21.9 °F 19% 29.73 in 10.0 mi South 21.9 mph 35.7 mph N/A   Clear
1:51 AM 64.0 °F 23.0 °F 21% 29.74 in 10.0 mi South 20.7 mph 32.2 mph N/A   Clear
3:51 AM 63.0 °F 24.1 °F 23% 29.72 in 10.0 mi SW 17.3 mph 26.5 mph N/A   Clear
4:51 AM 59.0 °F 24.1 °F 26% 29.74 in 10.0 mi SW 11.5 mph - N/A   Clear
6:51 AM 52.0 °F 25.0 °F 35% 29.78 in 10.0 mi SW 4.6 mph - N/A   Clear
7:51 AM 55.0 °F 28.9 °F 37% 29.79 in 10.0 mi SSW 5.8 mph - N/A   Clear
8:51 AM 64.0 °F 28.9 °F 27% 29.79 in 10.0 mi SSW 16.1 mph - N/A   Clear
9:51 AM 69.1 °F 27.0 °F 21% 29.78 in 10.0 mi SW 12.7 mph - N/A   Clear
10:51 AM 75.9 °F 24.1 °F 15% 29.77 in 10.0 mi SW 15.0 mph - N/A   Clear
11:51 AM 82.0 °F 16.0 °F 8% 29.74 in 10.0 mi WSW 18.4 mph - N/A   Clear
1:51 PM 82.0 °F 12.9 °F 7% 29.69 in 10.0 mi WSW 23.0 mph 28.8 mph N/A   Clear
2:51 PM 82.9 °F 10.0 °F 6% 29.67 in 10.0 mi SW 18.4 mph 28.8 mph N/A   Clear
3:51 PM 84.0 °F 10.0 °F 6% 29.65 in 10.0 mi SW 23.0 mph 27.6 mph N/A   Clear
4:51 PM 82.0 °F 8.1 °F 6% 29.65 in 10.0 mi SW 18.4 mph - N/A   Clear
5:51 PM 79.0 °F 12.9 °F 8% 29.67 in 10.0 mi SSW 11.5 mph - N/A   Clear
6:51 PM 73.9 °F 14.0 °F 10% 29.68 in 10.0 mi South 9.2 mph - N/A   Clear
7:51 PM 66.9 °F 16.0 °F 14% 29.70 in 10.0 mi South 9.2 mph - N/A   Clear
9:51 PM 59.0 °F 19.9 °F 22% 29.72 in 10.0 mi WSW 6.9 mph - N/A   Scattered Clouds
10:51 PM 62.1 °F 17.1 °F 18% 29.73 in 10.0 mi West 11.5 mph - N/A   Partly Cloudy
11:51 PM 64.0 °F 14.0 °F 14% 29.77 in 10.0 mi WNW 8.1 mph - N/A   Overcast